Regional Weather Roundup
Issued by NWS

Home | Current Version | Previous Version | Text Only | Print | Product List | Glossary On
Versions: 1 2 3 4 5 6 7 8 9 10 11 12 13 14 15 16 17 18 19 20 21 22 23 24 25 26 27 28 29 30 31 32 33 34 35 36 37 38 39 40 41 42 43 44 45 46 47 48 49 50
000
ASUS44 KBMX 291910
RWRAL

ALABAMA REGIONAL WEATHER ROUNDUP
NATIONAL WEATHER SERVICE BIRMINGHAM AL
200 PM CDT MON MAY 29 2017

NOTE: "FAIR" INDICATES FEW OR NO CLOUDS BELOW 12,000 FEET
WITH NO SIGNIFICANT WEATHER AND/OR OBSTRUCTIONS TO VISIBILITY.

THE REMARK "TC" DENOTES TEMPERATURE IN DEGREES CELSIUS.

ALZ001>011-014-016>018-020-292000-
NORTH ALABAMA

CITY           SKY/WX    TMP DP  RH WIND       PRES   REMARKS
MUSCLE SHOALS  CLOUDY    79  67  66 N5        30.02F
HUNTSVILLE     CLOUDY    79  69  71 SW6       30.02F
DECATUR        CLOUDY    79  68  69 CALM      30.02F
HALEYVILLE     FAIR      79  68  69 W8        30.04F
GADSDEN        CLOUDY    77  69  76 S8        30.04F
$$

ALZ012-013-022-023-030>036-040>044-292000-
WEST CENTRAL ALABAMA

CITY           SKY/WX    TMP DP  RH WIND       PRES   REMARKS
TUSCALOOSA     MOSUNNY   81  66  60 MISG      30.00F
$$

ALZ015-024>027-033>036-040>044-292000-
CENTRAL ALABAMA

CITY           SKY/WX    TMP DP  RH WIND       PRES   REMARKS
BIRMINGHAM     CLOUDY    78  67  68 S7        30.04F
MONTGOMERY     CLOUDY    82  68  62 W12       30.03F
SHELBY CO ARPT CLOUDY    72  71  97 CALM      30.02F
MAXWELL AFB    CLOUDY    79  69  71 SW8       30.02F
GREENVILLE     FAIR      84  66  54 W6        30.02F
$$

ALZ019-021-028-029-037-038-045>048-292000-
EAST CENTRAL ALABAMA

CITY           SKY/WX    TMP DP  RH WIND       PRES   REMARKS
ANNISTON       LGT RAIN  71  68  90 W8        30.07R
ALEXANDER CITY LGT RAIN  71  69  93 CALM      30.06F
AUBURN         LGT RAIN  72  70  93 NW8       30.07S
$$

ALZ051>064-292000-
SOUTHWEST ALABAMA

CITY           SKY/WX    TMP DP  RH WIND       PRES   REMARKS
MOBILE         PTSUNNY   85  69  58 S8        30.02F
BROOKLEY FIELD MOSUNNY   83  76  79 SE10      30.03F HX  91
EVERGREEN      MOSUNNY   85  72  65 SW6       30.02F HX  91
$$

ALZ049-050-065>069-292000-
SOUTHEAST ALABAMA

CITY           SKY/WX    TMP DP  RH WIND       PRES   REMARKS
DOTHAN         PTSUNNY   87  71  58 W14       30.07S HX  93
OZARK          PTSUNNY   86  73  63 SW8       30.03F HX  93
TROY           CLOUDY    82  68  62 SW10      30.04F
EUFAULA        FAIR      84  76  76 N5        30.02S HAZE    HX  93
$$



USA.gov is the U.S. government's official web portal to all federal, state and local government web resources and services.